If you wish to contribute or participate in the discussions about articles you are invited to join SKYbrary as a registered user

 Actions

Pinto Martins – Fortaleza International Airport

From SKYbrary Wiki

SBFZ
Airport
ICAO: SBFZ – IATA: FOR
Summary
Name Pinto Martins – Fortaleza International Airport
Region South America and Caribbean
Territory Brazil BR.gif
Location Fortaleza, Caera
Serving Fortaleza
Elevation 24.994 m
82 ft24.994 m
Coordinates 3° 46' 32.99" S, 38° 31' 55.99" W
Runways
Designator Length Width Surface ROPS
13/31 2545 m8,349.738 ft
45 m147.638 ft
ASP yes/yes


METAR
Observation SBFZ 171500Z 11004KT 9999 SCT020 BKN070 27/24 Q1011 RERA
Station Fortaleza / pinto Martins
Date/Time 17 February 2020 15:00:00
Wind direction 110°
Wind speed 04 kts
Lowest cloud amount scattered clouds
Temperature 27°C
Dew point 24°C
Humidity 83%
QNH 1011 hPa
Weather condition n/a

Pinto Martins – Fortaleza International Airport (IATA: FOR, ICAO: SBFZ) is the airport serving Fortaleza, Brazil.

Climatology

Tropical savanna climate (Köppen climate classification Aw)

Maps

Terrain

Loading map...

Airport Layout

Loading map...


Accidents & Serious Incidents at or in vicinity of SBFZ

None on SKYbrary